BLOCK DM-SL R/B (44904 NORAD) Tracking and Keplerian Element Data

This shows tracking and keplerian element data for the satellite.

Feedback or suggestion? Click here.




ElementValue
Catalog44904
NameBLOCK DM-SL R/B
Epoch Orbit30
Epoch Day22.62724306
Epoch Year2020
RAAN272.1944
Inclination0.3956
Eccentricity0.0078749
Argument of Perigee32.3132
Mean Anonmoly54.711
Mean Motion1.02969179
Decay Rate-4.3E-07
L11 44904U 19095B 20022.62724306 -.00000043 00000-0 00000+0 0 9998
L22 44904 0.3956 272.1944 0078749 32.3132 54.7110 1.02969179 309

Live tracking and technical data element details for BLOCK DM-SL R/B (NORAD 44904). BLOCK DM-SL R/B can be tracked NOW for your location showing map with azimuth and elevation plus other details from your city location.

Track the satellite on the map from your city or location and see movement details for azimuth, elevation, latitude, longitude, range, height, and movement on the map or in text.







IsCatalogInMostPopularTable: catalog: 44904, numindb: 51
Update: records affected: 1



GetName: 44904 BLOCK DM-SL R/B

Hit Count: updated at: Thu, 09 Jul 2020 01:52:30 GMT